Retour au catalogue

SL-14 DEB

ActifPO
NORAD 26009·DEBRIS·🇷🇺 Russia

Lancé Sep 28, 1991 depuis Plesetsk Cosmodrome

Loading…

Prochains Passages (prochaines 24 heures)

TLE

FraisSource: Space-Track

Époque: Sep 14, 2026, 08:56 UTC

1 26009U 91068U   26257.37249648  .00000334  00000-0  13423-2 0  9991
2 26009  82.4911  39.6748 0115604  13.4931  14.3836 12.82080201256146

Suivez SL-14 DEB en temps réel avec AllMySat

Download on the App Store